Change the Weather History Date:

Monday, April 28, 2014

  Actual Average Record
Temperature  
Mean Temperature 86 °F -  
Max Temperature 105 °F 98 °F 109 °F (2001)
Min Temperature 66 °F 78 °F 66 °F (2014)
Cooling Degree Days 20    
Growing Degree Days 36 (Base 50)    
Moisture  
Dew Point 49 °F    
Average Humidity 28    
Maximum Humidity 64    
Minimum Humidity 6    
Precipitation  
Precipitation 0.00 in - - ()
Sea Level Pressure  
Sea Level Pressure 29.70 in    
Wind  
Wind Speed 5 mph ()    
Max Wind Speed 14 mph    
Max Gust Speed -    
Visibility 2.8 miles    
Events      
Averages and records for this station are not official NWS values.
T = Trace of Precipitation, MM = Missing Value Source: Averaged Metar Reports

Daily Weather History Graph

Daily Weather History Graph

Search for Another Location

Airport or City:

Trip Planner

Search our weather history database for the weather conditions in past years. The results will help you decide how hot, cold, wet, or windy it might be!

Date:

Astronomy

Apr. 28, 2014 Rise Set
Actual Time 5:31 AM IST 6:37 PM IST
Civil Twilight 5:06 AM IST 7:01 PM IST
Nautical Twilight 4:38 AM IST 7:30 PM IST
Astronomical Twilight 4:08 AM IST 8:00 PM IST
Moon 4:43 AM IST (4/28) 5:49 PM IST (4/28)
Length of Visible Light 13h 54m
Length of Day
13h 06m
Waning Crescent, 1% of the Moon is Illuminated
Apr 28
Waning Crescent
Apr 29
New
May 7
First Quarter
May 15
Full
May 21
Last Quarter

Hourly Weather History & Observations

Time (IST) Temp. Heat Index Dew Point Humidity Pressure Visibility Wind Dir Wind Speed Gust Speed Precip Events Conditions
12:00 AM 78.8 °F - 57.2 °F 47% 29.71 in 3.1 mi Variable 2.3 mph - N/A   Haze
1:00 AM 75.2 °F - 57.2 °F 53% 29.71 in 3.1 mi Variable 2.3 mph - N/A   Haze
2:00 AM 73.4 °F - 57.2 °F 57% 29.68 in 2.5 mi Calm Calm - N/A   Haze
2:30 AM 73 °F - 62 °F 59% 29.71 in 2 mi Calm Calm - -   Haze
3:00 AM 73.4 °F - 57.2 °F 57% 29.68 in 2.5 mi Calm Calm - N/A   Haze
4:00 AM 71.6 °F - 57.2 °F 60% 29.68 in 2.5 mi Calm Calm - N/A   Haze
5:00 AM 69.8 °F - 57.2 °F 64% 29.68 in 2.5 mi Variable 2.3 mph - N/A   Haze
5:30 AM 73 °F - 58 °F 50% 29.72 in 2 mi 2.3 mph - -   Haze
6:00 AM 71.6 °F - 57.2 °F 60% 29.71 in 2.5 mi Variable 2.3 mph - N/A   Haze
6:30 AM 73.4 °F - 57.2 °F 57% 29.74 in 2.5 mi Variable 2.3 mph - N/A   Haze
7:30 AM 80.6 °F 80.5 °F 55.4 °F 42% 29.77 in 2.5 mi West 6.9 mph - N/A   Haze
8:30 AM 89 °F - 51 °F 18% 29.77 in 2 mi West 10.4 mph - -   Haze
8:30 AM 91.4 °F 89.1 °F 53.6 °F 28% 29.77 in 2.5 mi West 10.4 mph - N/A   Haze
9:30 AM 95.0 °F 93.0 °F 55.4 °F 26% 29.77 in 3.1 mi NW 8.1 mph - N/A   Haze
10:00 AM 96.8 °F 95.8 °F 57.2 °F 27% 29.77 in 3.1 mi NW 5.8 mph - N/A   Haze
10:30 AM 102.2 °F 100.4 °F 53.6 °F 20% 29.77 in 3.1 mi NW 8.1 mph - N/A   Haze
11:00 AM 102.2 °F - 48.2 °F 16% 29.74 in 3.1 mi NW 10.4 mph - N/A   Haze
11:30 AM 102 °F - 46 °F 8% 29.74 in 2 mi WNW 11.5 mph - -   Haze
11:30 AM 105.8 °F - 46.4 °F 14% 29.74 in 3.1 mi WNW 11.5 mph - N/A   Haze
12:00 PM 105.8 °F - 48.2 °F 14% 29.74 in 3.1 mi West 9.2 mph - N/A   Haze
12:30 PM 105.8 °F - 46.4 °F 14% 29.71 in 3.1 mi NW 12.7 mph - N/A   Haze
1:00 PM 107.6 °F - 42.8 °F 11% 29.71 in 3.1 mi West 13.8 mph - N/A   Haze
1:30 PM 107.6 °F - 41.0 °F 10% 29.68 in 3.1 mi WNW 12.7 mph - N/A   Haze
2:00 PM 107.6 °F - 41.0 °F 10% 29.68 in 3.1 mi WNW 13.8 mph - N/A   Haze
5:00 PM 104.0 °F - 42.8 °F 12% 29.62 in 3.1 mi West 10.4 mph - N/A   Haze
5:30 PM 101 °F - 41 °F 6% 29.62 in 2 mi West 10.4 mph - -   Haze
5:30 PM 100.4 °F - 41.0 °F 13% 29.62 in 3.1 mi West 10.4 mph - N/A   Haze
6:00 PM 100.4 °F - 41.0 °F 13% 29.62 in 3.1 mi West 9.2 mph - N/A   Haze
6:30 PM 96.8 °F - 42.8 °F 16% 29.62 in 3.1 mi West 6.9 mph - N/A   Haze
7:00 PM 95.0 °F - 42.8 °F 16% 29.62 in 3.1 mi West 8.1 mph - N/A   Haze
7:30 PM 91.4 °F - 42.8 °F 18% 29.65 in 3.1 mi West 6.9 mph - N/A   Haze
8:00 PM 89.6 °F - 42.8 °F 20% 29.65 in 3.1 mi West 5.8 mph - N/A   Haze
8:30 PM 89 °F - 47 °F 15% 29.66 in 2 mi NW 3.5 mph - -   Haze
8:30 PM 87.8 °F - 42.8 °F 21% 29.65 in 3.1 mi NW 3.5 mph - N/A   Haze
9:00 PM 87.8 °F - 42.8 °F 21% 29.68 in 3.1 mi West 3.5 mph - N/A   Haze
10:00 PM 82.4 °F - 44.6 °F 26% 29.68 in 3.1 mi West 3.5 mph - N/A   Haze
11:00 PM 80.6 °F - 44.6 °F 28% 29.71 in 2.5 mi Calm Calm - N/A   Haze
11:30 PM 79 °F - 50 °F 25% 29.71 in 2 mi Calm Calm - -   Haze